Powrót do katalogu

STARLINK-31916

AktywnyŁącznośćVLEO
NORAD 59795·PAYLOAD·🇺🇸 United States

Wystrzelony May 18, 2024 z Cape Canaveral Space Force Station

Loading…

Następne Przeloty (najbliższe 24 godziny)

TLE

ŚwieżeSource: CelesTrak SupGP

Epoka: Sep 14, 2026, 21:16 UTC

1 59795C 24093P   26257.88659722  .00033072  00000+0  11978-2 0  2571
2 59795  43.0003 220.4173 0001356 261.2608 347.6385 15.27562512    19

Śledź STARLINK-31916 w czasie rzeczywistym z AllMySat

Download on the App Store